Aberdeen / Amory, MS

12:59 AM CDT on June 26, 2017 (GMT -0500)
Aberdeen / Amory

Weather History for KM40 - September, 2012

Change the Weather History Date:

Monday, September 17, 2012

  Actual Average (KCBM) Record (KCBM)
Temperature  
Mean Temperature 73 °F -  
Max Temperature 78 °F 84 °F 96 °F (1998)
Min Temperature 68 °F 62 °F 46 °F (2000)
Cooling Degree Days 8    
Growing Degree Days 23 (Base 50)    
Moisture  
Dew Point 54 °F    
Average Humidity 54    
Maximum Humidity 57    
Minimum Humidity 53    
Precipitation  
Precipitation 1.08 in - - ()
Sea Level Pressure  
Sea Level Pressure 29.86 in    
Wind  
Wind Speed 2 mph ()    
Max Wind Speed 9 mph    
Max Gust Speed -    
Visibility 5.2 miles    
Events Rain    
Averages and records for this station are not official NWS values.
T = Trace of Precipitation, MM = Missing Value Source: Averaged Metar Reports

Daily Weather History Graph

Daily Weather History Graph

Search for Another Location

Airport or City:

Trip Planner

Search our weather history database for the weather conditions in past years. The results will help you decide how hot, cold, wet, or windy it might be!

Date:

Astronomy

Sep. 17, 2012 Rise Set
Actual Time 6:38 AM CDT 6:56 PM CDT
Civil Twilight 6:13 AM CDT 7:21 PM CDT
Nautical Twilight 5:44 AM CDT 7:51 PM CDT
Astronomical Twilight 5:15 AM CDT 8:20 PM CDT
Moon 8:19 AM CDT (9/17) 7:48 PM CDT (9/17)
Length of Visible Light 13h 07m
Length of Day
12h 18m
Waxing Crescent, 3% of the Moon is Illuminated
Sep 17
Waxing Crescent
Sep 22
First Quarter
Sep 29
Full
Oct 8
Last Quarter
Oct 15
New

Hourly Weather History & Observations

Time (CDT) Temp. Dew Point Humidity Pressure Visibility Wind Dir Wind Speed Gust Speed Precip Events Conditions
12:15 AM 71.6 °F 53.6 °F 53% 29.99 in 5.0 mi Calm Calm - N/A   Haze
12:35 AM 71.6 °F 53.6 °F 53% 29.98 in 5.0 mi Calm Calm - N/A   Haze
12:55 AM 71.6 °F 53.6 °F 53% 29.98 in 4.0 mi Calm Calm - N/A   Haze
1:15 AM 71.6 °F 53.6 °F 53% 29.97 in 9.0 mi Calm Calm - N/A   Clear
1:35 AM 71.6 °F 53.6 °F 53% 29.97 in 9.0 mi Calm Calm - N/A   Partly Cloudy
1:55 AM 71.6 °F 55.4 °F 57% 29.97 in 6.0 mi Calm Calm - N/A   Haze
2:15 AM 71.6 °F 55.4 °F 57% 29.96 in 10.0 mi Calm Calm - N/A   Partly Cloudy
2:35 AM 71.6 °F 55.4 °F 57% 29.96 in 1.5 mi Calm Calm - 0.08 in Rain Light Rain
2:55 AM 71.6 °F 53.6 °F 53% 29.95 in 7.0 mi Calm Calm - 0.08 in   Scattered Clouds
3:15 AM 71.6 °F 53.6 °F 53% 29.94 in 6.0 mi Calm Calm - N/A   Haze
3:35 AM 71.6 °F 53.6 °F 53% 29.93 in 7.0 mi Calm Calm - N/A   Partly Cloudy
3:55 AM 71.6 °F 53.6 °F 53% 29.93 in 10.0 mi Calm Calm - N/A   Partly Cloudy
4:15 AM 71.6 °F 53.6 °F 53% 29.93 in 10.0 mi Calm Calm - N/A   Clear
4:35 AM 71.6 °F 53.6 °F 53% 29.92 in 9.0 mi Calm Calm - N/A   Partly Cloudy
4:55 AM 71.6 °F 53.6 °F 53% 29.93 in 8.0 mi Calm Calm - N/A   Clear
5:15 AM 71.6 °F 53.6 °F 53% 29.93 in 4.0 mi Calm Calm - N/A   Haze
5:35 AM 71.6 °F 53.6 °F 53% 29.93 in 5.0 mi Calm Calm - N/A   Haze
5:55 AM 71.6 °F 53.6 °F 53% 29.92 in 3.0 mi Calm Calm - N/A   Haze
6:15 AM 71.6 °F 53.6 °F 53% 29.92 in 5.0 mi Calm Calm - N/A   Haze
6:35 AM 71.6 °F 53.6 °F 53% 29.92 in 8.0 mi Calm Calm - N/A   Overcast
7:15 AM 71.6 °F 53.6 °F 53% 29.92 in 6.0 mi Calm Calm - N/A   Haze
7:35 AM 71.6 °F 53.6 °F 53% 29.92 in 3.0 mi Calm Calm - N/A   Haze
7:55 AM 71.6 °F 53.6 °F 53% 29.92 in 6.0 mi Calm Calm - N/A   Haze
8:15 AM 71.6 °F 55.4 °F 57% 29.91 in 7.0 mi South 3.5 mph - N/A   Overcast
8:35 AM 73.4 °F 55.4 °F 53% 29.91 in 6.0 mi South 8.1 mph - N/A   Haze
8:55 AM 73.4 °F 55.4 °F 53% 29.92 in 5.0 mi South 5.8 mph - N/A   Haze
9:15 AM 73.4 °F 55.4 °F 53% 29.92 in 5.0 mi South 6.9 mph - N/A   Haze
9:55 AM 73.4 °F 57.2 °F 57% 29.92 in 5.0 mi South 9.2 mph - N/A   Haze
10:35 AM 75.2 °F 57.2 °F 53% 29.91 in 5.0 mi South 6.9 mph - N/A   Haze
10:55 AM 75.2 °F 59.0 °F 57% 29.90 in 5.0 mi South 5.8 mph - N/A   Haze
11:15 AM 77.0 °F 59.0 °F 54% 29.90 in 6.0 mi South 8.1 mph - N/A   Haze
11:35 AM 78.8 °F 60.8 °F 54% 29.89 in 7.0 mi South 9.2 mph - N/A   Mostly Cloudy
11:55 AM 78.8 °F 62.6 °F 57% 29.88 in 8.0 mi SSW 9.2 mph - N/A   Mostly Cloudy
12:15 PM 78.8 °F 60.8 °F 54% 29.87 in 8.0 mi SSW 9.2 mph - N/A   Mostly Cloudy
12:55 PM 73.4 °F 57.2 °F 57% 29.86 in 0.5 mi SSW 6.9 mph - 0.20 in Rain Heavy Rain
1:15 PM 73.4 °F 57.2 °F 57% 29.85 in 5.0 mi West 3.5 mph - N/A   Light Drizzle
1:35 PM 73.4 °F 57.2 °F 57% 29.84 in 6.0 mi NW 4.6 mph - N/A   Light Drizzle
1:55 PM 75.2 °F 57.2 °F 53% 29.83 in 5.0 mi NW 3.5 mph - N/A   Drizzle
2:15 PM 73.4 °F 57.2 °F 57% 29.83 in 5.0 mi North 6.9 mph - N/A   Light Drizzle
2:35 PM 73.4 °F 55.4 °F 53% 29.82 in 0.5 mi NNE 5.8 mph - 0.12 in Rain Heavy Rain
2:55 PM 71.6 °F 55.4 °F 57% 29.81 in 1.2 mi North 5.8 mph - 0.29 in Rain Rain
3:15 PM 73.4 °F 55.4 °F 53% 29.81 in 1.5 mi NNE 3.5 mph - 0.03 in Rain Light Rain
3:35 PM 71.6 °F 55.4 °F 57% 29.80 in 1.0 mi NNW 4.6 mph - 0.10 in Rain Light Rain
3:55 PM 71.6 °F 55.4 °F 57% 29.79 in 3.0 mi North 6.9 mph - 0.16 in   Light Drizzle
4:15 PM 71.6 °F 55.4 °F 57% 29.79 in 6.0 mi NNE 6.9 mph - N/A   Haze
4:55 PM 71.6 °F 55.4 °F 57% 29.77 in 2.5 mi North 5.8 mph - 0.01 in Rain Light Rain
5:35 PM 71.6 °F 53.6 °F 53% 29.78 in 2.0 mi NNW 6.9 mph - 0.05 in Rain Light Rain
5:55 PM 69.8 °F 53.6 °F 56% 29.78 in 1.5 mi North 8.1 mph - 0.09 in Rain Rain
6:15 PM 69.8 °F 53.6 °F 56% 29.77 in 1.5 mi NNE 6.9 mph - 0.04 in Rain Rain
6:35 PM 69.8 °F 51.8 °F 53% 29.77 in 1.8 mi NNE 5.8 mph - 0.10 in Rain Light Rain
6:55 PM 69.8 °F 51.8 °F 53% 29.77 in 2.5 mi NNE 5.8 mph - 0.11 in Rain Light Rain
7:15 PM 69.8 °F 51.8 °F 53% 29.77 in 2.5 mi ENE 4.6 mph - 0.01 in Rain Light Rain
7:35 PM 69.8 °F 51.8 °F 53% 29.77 in 1.8 mi NNE 4.6 mph - 0.05 in Rain Rain
7:55 PM 69.8 °F 51.8 °F 53% 29.77 in 2.0 mi Calm Calm - 0.10 in Rain Light Rain
8:15 PM 69.8 °F 51.8 °F 53% 29.77 in 2.5 mi NE 4.6 mph - 0.02 in Rain Rain
8:35 PM 69.8 °F 51.8 °F 53% 29.77 in 4.0 mi NE 3.5 mph - 0.03 in   Drizzle
8:55 PM 68.0 °F 51.8 °F 56% 29.76 in 4.0 mi NNE 4.6 mph - 0.04 in   Light Drizzle
9:15 PM 68.0 °F 51.8 °F 56% 29.76 in 8.0 mi Calm Calm - N/A   Partly Cloudy
9:35 PM 68.0 °F 51.8 °F 56% 29.76 in 9.0 mi Calm Calm - N/A   Clear
9:55 PM 68.0 °F 51.8 °F 56% 29.77 in 9.0 mi Calm Calm - N/A   Clear
10:15 PM 68.0 °F 51.8 °F 56% 29.77 in 9.0 mi Calm Calm - N/A   Clear
10:35 PM 68.0 °F 51.8 °F 56% 29.77 in 7.0 mi NNW 3.5 mph - N/A   Mostly Cloudy
10:55 PM 68.0 °F 51.8 °F 56% 29.77 in 7.0 mi Calm Calm - N/A   Mostly Cloudy
11:15 PM 68.0 °F 51.8 °F 56% 29.77 in 5.0 mi Calm Calm - N/A   Haze
11:35 PM 69.8 °F 51.8 °F 53% 29.78 in 6.0 mi Calm Calm - N/A   Haze
11:55 PM 69.8 °F 51.8 °F 53% 29.77 in 7.0 mi Calm Calm - N/A   Mostly Cloudy